小惑星2020 DD

2020 DD

English version
Home page
Updated on March 7, 2020

---------------------------------------------------------------------

・ プロフィール

発見日 2020年2月16日
発見光度 18.0等
発見者 Mt. Lemmon Survey

・ 軌道要素

Epoch 2020 May 31.0 TT = JDT 2459000.5                  Bell
M  17.37688              (2000.0)            P               Q
n   0.25422135     Peri.  139.82216     +0.39055885     +0.92038921
a   2.4679027      Node   153.15166     -0.85485291     +0.37011439
e   0.9528203      Incl.    2.36559     -0.34159960     +0.12609141
P   3.88           H   23.5           G   0.15           U   7

・ 光度変化

        H = 23.5  G = 0.15

---------------------------------------------------------------------

軌道要素はM.P.E.C. 2020-D24に掲載されたものです。
光度グラフはComet for Windowsで作成したものです。

---------------------------------------------------------------------

Copyright(C) Seiichi Yoshida (comet@aerith.net). All rights reserved.